Regional Weather Roundup
Issued by NWS Raleigh/Durham, NC

Home | Current Version | Previous Version | Text Only | Print | Product List | Glossary On
Versions: 1 2 3 4 5 6 7 8 9 10 11 12 13 14 15 16 17 18 19 20 21 22 23 24 25 26 27 28 29 30 31 32 33 34 35 36 37 38 39 40 41 42 43 44 45 46 47 48 49 50
000
ASUS42 KRAH 012010
RWRRAH
NORTH CAROLINA WEATHER ROUNDUP
NATIONAL WEATHER SERVICE RALEIGH NC
400 PM EDT WED JUL 01 2015

NOTE: "FAIR" INDICATES FEW OR NO CLOUDS BELOW 12,000 FEET WITH NO
SIGNIFICANT WEATHER AND/OR OBSTRUCTIONS TO VISIBILITY.

NCZ001-053-055-056-065-067-012100-
WESTERN NORTH CAROLINA

CITY           SKY/WX    TMP DP  RH WIND       PRES   REMARKS
ASHEVILLE      CLOUDY    78  64  61 NW6       30.03F
JEFFERSON      CLOUDY    75  56  50 W8        30.06F
HICKORY        PTSUNNY   85  61  44 SW8G20    29.95F
RUTHERFORDTON  NOT AVBL
MOUNT AIRY     MOSUNNY   86  64  48 SW3       29.96F
$$

NCZ021-022-025-041-071-084-088-012100-
CENTRAL NORTH CAROLINA

CITY           SKY/WX    TMP DP  RH WIND       PRES   REMARKS
CHARLOTTE      PTSUNNY   87  65  47 SW9       29.96F
GREENSBORO     MOSUNNY   87  62  43 SW10G16   29.94F
WINSTON-SALEM  MOSUNNY   87  61  41 W8        29.95F
RALEIGH-DURHAM PTSUNNY   87  69  54 W8        29.93F
FORT BRAGG     MOSUNNY   85  71  62 SW7       29.93F
FAYETTEVILLE   MOSUNNY   83  70  64 S8        29.95F
$$

NCZ011-015-027-028-043-044-047-080-103-012100-
NORTHEASTERN NORTH CAROLINA

CITY           SKY/WX    TMP DP  RH WIND       PRES   REMARKS
ROANOKE RAPIDS FAIR      84  68  58 SW12      29.92S
ROCKY MT-WILSO MOSUNNY   89  68  49 SW10      29.93R
GREENVILLE     SUNNY     88  66  48 SW7       29.94F
WASHINGTON     SUNNY     86  67  54 SW9       29.93F
ELIZABETH CITY NOT AVBL
MANTEO         SUNNY     87  66  50 W8        29.92F
CAPE HATTERAS  SUNNY     82  74  76 SW14G22   29.94F
$$

NCZ078-087-090-091-093-098-101-012100-
SOUTHEASTERN NORTH CAROLINA

CITY           SKY/WX    TMP DP  RH WIND       PRES   REMARKS
LUMBERTON      MOSUNNY   84  71  65 W8        29.95F
GOLDSBORO      SUNNY     85  71  62 SW9       29.92F
KINSTON        MOSUNNY   86  70  58 S9        29.94F
KENANSVILLE    MOSUNNY   81  69  67 SW8       29.96S
NEW BERN       SUNNY     86  72  62 W8        29.94F
CHERRY POINT   PTSUNNY   85  73  67 VRB7      29.94F
BEAUFORT       SUNNY     83  74  74 SW16      29.95S
JACKSONVILLE   MOSUNNY   85  71  63 W6        29.92F
WILMINGTON     MOSUNNY   87  70  56 W12       29.94F
$$



USA.gov is the U.S. government's official web portal to all federal, state and local government web resources and services.